IRIDIUM 33 DEB, 34350

Orbit data source: Space-Track

IRIDIUM 33 DEB, 34350 is space debris in LEO originally from a launch on Sun, 14 Sep 1997 UTC launched from the Tyuratam Missile And Space Complex (TTMTR). The debris from Iridium 33, an American commercial communications satellite, has been tracked extensively since its accidental collision with the defunct Russian satellite Cosmos 2251 in 2009. This event, occurring at high speed in low Earth orbit (LEO), generated thousands of pieces of space debris, significantly increasing the risk of further collisions. The Iridium 33 debris cloud has impacted space traffic management and orbital debris mitigation strategies, making it a subject of ongoing study in space situational awareness.

Loading next visibility...
Identifier
34350, 1997-051ES
Orbit
LEO
Country
Flag of USUS
Related business
Manufacturer
Unknown
Mission
Spacecraft
Bus & Motor
Unknown
Mass
Unknown
Launch date (UTC)
1997-09-14 (29 years ago)
Launch vehicle
Unknown
Launch site
Tyuratam Missile And Space Complex (TTMTR)
Object type
Payload
Rocket body
Debris
Shape & HBR
Unknown shape, 0.1 m
Radar Cross Section
Medium (>0.1 m² and <1 m²)

Expand to show TLE details & history
Last TLE update: 12 hours ago

TLE from 12 hours ago
0 IRIDIUM 33 DEB
1 34350U 97051ES  26169.74355638  .00000775  00000-0  21202-3 0  9991
2 34350  86.3264 281.1935 0019354 230.7075 260.3434 14.45889654910096
Epoch: 2026-06-18T17:50Z
TLE epoch observation values (Epoch: 2026-06-18T17:50:43.271Z)
Latitude
49.12972°
Longitude
-77.70162°
Altitude
749.297 km
Speed
7.483 km/s
True Right ascension
06h 27m 50s
True Declination
48° 57' 33"
Sunlit
Object was in daylight at epoch
Visualization orbit readout
Latitude
Unknown
Longitude
Unknown
Altitude
Unknown
Speed
Unknown
Apparent Right ascension
Unknown
Apparent Declination
Unknown
Sunlit
N/A
Visualization observer readout
Local Sidereal Time
16:25:50
Azimuth
Unknown
Elevation
Unknown
Doppler factor
Unknown
Orbital elements
Apogee altitude
749.823 km
Perigee altitude
722.286 km
Semi-major axis
7,114.192 km
Eccentricity
0.00194
Inclination
86.3264°
RAAN
281.1935°
Arg. of periapsis
230.7075°
True anomaly
260.12485°
Mean anomaly
260.3434°
Eccentric anomaly
260.23412°
Mean motion
3.61705 °/min
Orbital period
99.53 mins
BSTAR
0.00021202

Documentation

Showing up to 5 results
|